Temperature
18 18 18 17 17 17 17 17 17 17 17 17 17 17 17 17 17 17 17 17 17 17 17 17 17 17 17 17 17 17 17 17 17 17 17 17 16 16 16 16 16 16 16
18 18 18 18 17 17 17 17 17 17 17 17 17 17 17 17 17 17 17 17 17 17 17 17 17 17 17 17 17 17 17 17 17 17 17 17 17 17 16 16 16 16 16
18 18 18 18 17 17 17 17 17 17 17 17 17 17 17 17 18 18 18 18 18 17 17 17 17 17 17 17 17 17 17 17 17 17 17 17 17 17 16 16 16 16 16
18 18 18 18 17 17 17 17 17 17 17 17 18 17 18 18 18 18 18 18 18 18 17 17 17 17 17 17 17 17 17 17 17 17 17 17 17 17 17 16 16 16 16
18 18 18 18 17 17 17 17 17 17 17 18 18 18 18 18 18 18 18 18 18 18 18 17 17 17 17 17 17 17 17 17 17 17 17 17 17 17 17 16 16 16 16
18 18 18 18 17 17 17 17 17 17 17 17 17 18 18 18 18 18 18 18 18 18 18 18 17 17 17 17 17 17 17 17 17 17 17 17 17 17 17 16 16 16 16
18 18 18 18 18 18 18 17 17 17 17 17 17 18 18 18 18 18 18 18 18 18 18 18 18 18 18 17 17 17 17 17 17 17 17 17 17 17 17 16 16 16 16
18 18 18 18 18 18 18 18 17 17 17 17 17 17 17 18 18 18 18 18 18 18 18 18 18 18 18 17 17 17 17 17 17 17 17 17 17 17 16 16 16 16 16
18 18 18 18 18 18 18 18 17 17 17 17 17 17 17 17 18 18 18 18 18 18 18 18 18 18 18 18 17 18 18 17 17 17 17 17 16 16 16 16 16 16 16
18 18 18 18 18 18 18 18 17 17 17 17 17 17 17 17 17 17 18 18 18 18 18 18 18 18 18 18 18 18 18 18 17 17 17 17 17 16 16 16 16 16 16
19 18 18 18 18 18 18 18 17 17 17 17 17 17 17 17 17 17 17 17 17 17 17 17 17 17 17 17 17 17 17 17 17 17 17 17 16 16 16 16 16 16 16
19 19 18 18 18 18 18 18 18 18 17 17 17 17 17 17 17 17 17 17 17 17 17 17 17 17 17 17 17 17 17 17 17 17 17 17 16 16 16 16 16 16 16
19 19 19 19 18 18 18 18 18 18 17 17 17 17 17 17 17 17 17 16 16 17 17 17 17 17 17 17 17 17 17 17 17 16 16 16 16 16 16 16 16 16 16
19 19 19 18 18 18 18 18 18 18 18 18 18 17 17 17 17 17 17 16 16 16 16 17 17 17 16 16 16 16 16 16 16 16 16 16 16 16 15 15 15 15 15
19 19 18 18 18 18 18 18 18 18 18 18 18 17 17 17 17 17 16 16 16 16 16 16 16 16 16 16 16 16 16 16 16 15 15 15 15 15 15 15 15 15 15
19 19 19 18 18 18 18 18 18 18 18 18 17 17 17 17 17 17 16 16 16 16 16 16 16 16 16 16 15 15 15 15 15 15 15 15 15 15 15 15 15 15 15
19 19 19 18 18 18 18 18 18 18 17 17 17 17 17 17 17 17 17 17 16 16 16 16 16 15 15 15 15 15 15 15 15 15 14 15 15 15 15 15 14 14 14
19 19 18 18 18 18 18 18 18 18 17 17 17 17 17 17 17 17 17 16 16 16 16 16 16 15 15 15 15 15 15 14 14 14 14 14 14 14 14 14 14 14 14
19 19 18 18 18 18 18 18 17 17 17 17 17 17 17 17 17 17 16 16 16 16 16 15 15 15 15 15 14 14 14 14 14 14 14 14 14 14 13 13 14 14 13
19 19 19 18 18 18 17 17 17 17 17 17 17 17 17 17 17 16 16 16 16 16 16 15 15 15 15 14 14 14 14 14 14 13 13 13 13 13 13 13 13 13 13
19 19 18 18 18 18 18 17 17 17 17 17 17 17 17 17 17 16 16 16 16 16 15 15 15 15 14 14 14 14 14 13 13 13 13 13 13 13 13 13 13 12 12
19 19 18 18 18 18 17 17 17 17 17 17 17 17 17 17 16 16 16 16 16 15 15 15 15 14 14 14 14 13 13 13 13 13 13 13 13 13 12 12 12 12 12
19 18 18 18 18 18 17 17 17 17 17 17 16 16 16 16 16 16 16 16 15 15 15 15 15 14 14 14 13 13 13 13 13 12 12 12 12 12 12 12 12 12 12
18 18 18 18 17 17 17 17 17 16 16 16 16 16 16 16 16 16 16 15 15 15 15 15 14 14 14 13 13 13 13 12 12 12 12 12 12 12 12 11 11 11 11
18 18 17 17 17 17 17 17 16 16 16 16 16 16 16 16 16 15 15 15 15 15 14 14 14 14 13 13 13 12 12 12 12 12 12 11 12 12 11 11 11 11 11
17 17 17 17 17 17 17 16 16 16 16 16 16 16 15 15 15 15 15 15 14 14 14 14 14 13 13 13 12 12 12 12 12 11 11 11 11 11 11 11 11 11 11
Wind_Speed
2 2 1 2 2 2 2 2 1 1 1 2 2 3 4 5 6 6 7 9 11 12 12 13 14 15 15 15 15 15 14 13 13 13 13 12 11 11 11 11 11 11 10
3 2 2 2 2 3 3 2 2 2 2 2 3 3 4 5 6 7 8 9 11 12 13 13 14 15 15 15 15 15 15 15 14 14 14 14 14 13 13 12 12 12 12
5 4 3 2 3 3 2 2 2 2 2 2 3 3 4 5 6 7 8 8 9 11 13 14 15 15 16 16 16 16 16 16 16 16 16 16 16 15 15 14 14 14 13
7 4 3 3 3 2 2 2 1 1 2 2 2 3 3 4 5 6 7 8 8 9 11 14 16 16 17 17 17 16 17 17 17 17 17 17 17 17 16 16 16 15 15
8 6 4 3 3 2 2 2 1 2 2 2 3 3 3 4 4 5 6 7 9 10 10 12 15 16 17 17 17 17 18 17 18 18 18 18 18 18 18 18 17 17 16
8 6 4 4 3 2 2 2 2 2 2 2 2 3 3 3 3 4 5 6 7 9 10 11 11 12 15 17 17 17 18 18 18 19 19 19 20 19 19 19 19 18 18
7 6 4 4 4 3 4 3 2 2 1 1 0 2 3 2 2 3 3 4 5 7 8 9 9 9 9 12 14 15 16 18 18 19 20 21 21 21 21 21 21 21 20
7 6 5 4 4 3 3 3 3 1 1 1 1 0 2 3 2 1 1 2 3 3 4 6 7 8 8 8 9 12 13 15 16 17 18 18 20 21 22 22 22 22 22
7 6 6 5 5 4 4 4 4 4 2 2 2 2 1 2 3 2 2 1 2 2 3 3 4 6 7 7 7 8 10 12 12 12 13 14 17 19 19 20 20 21 21
5 6 6 6 5 4 4 5 5 4 4 3 2 2 2 2 1 2 2 2 2 2 2 2 3 3 4 5 6 7 8 8 8 9 11 12 13 14 16 16 16 16 17
4 5 5 5 5 4 5 5 4 4 4 4 3 2 2 1 2 2 3 3 2 2 2 2 1 1 1 3 3 4 4 4 5 7 8 9 9 10 11 12 13 13 14
3 4 4 5 4 4 5 5 5 5 5 4 4 3 3 2 3 3 4 3 2 2 2 1 1 1 1 2 2 1 1 2 4 5 5 5 5 6 7 7 8 8 9
3 4 4 4 4 5 5 4 5 5 5 5 5 4 4 4 3 3 3 2 2 2 2 1 1 1 1 1 1 1 1 2 2 2 2 2 3 3 3 4 5 5 6
5 4 4 4 4 5 4 4 4 4 4 5 5 5 4 4 3 3 3 2 2 1 1 2 1 1 1 1 1 1 1 1 1 2 3 2 2 2 2 2 2 3 3
4 4 4 4 4 4 4 5 4 5 4 4 4 4 4 3 3 3 3 3 3 2 2 2 1 1 0 1 1 1 1 2 2 3 3 3 3 2 2 2 1 1 1
4 4 5 5 4 4 5 5 4 4 5 4 4 4 4 3 3 3 3 3 3 3 3 2 2 1 1 1 1 1 1 2 3 3 3 3 3 3 3 2 2 2 2
5 5 5 5 5 5 5 5 5 4 5 5 4 5 5 4 3 3 3 3 3 3 4 2 1 1 0 0 1 1 1 1 2 3 3 3 4 4 4 3 3 3 3
5 6 5 5 5 5 5 5 6 5 6 6 5 5 5 4 4 3 3 3 3 3 3 3 1 1 1 1 1 0 1 1 1 2 2 3 3 4 4 4 4 4 4
6 5 5 5 5 5 5 5 6 6 6 6 6 6 6 5 4 3 4 3 3 3 3 3 2 1 1 1 0 0 0 1 1 1 1 1 2 3 3 4 4 4 4
5 5 5 5 5 5 5 5 5 5 5 5 5 6 6 6 6 5 4 4 3 3 3 2 2 1 1 1 1 1 0 1 1 1 1 1 1 2 2 2 3 3 3
5 5 4 4 4 4 5 5 5 5 5 5 5 5 6 6 7 6 5 5 5 4 3 3 2 2 1 1 2 1 1 0 1 1 0 1 1 1 1 1 1 2 2
5 4 5 5 5 5 6 7 6 6 6 6 5 5 4 5 6 7 7 7 7 6 5 4 3 3 3 3 2 2 1 1 1 0 0 1 0 0 0 0 0 1 2
4 4 5 5 6 7 8 8 9 6 6 6 6 5 4 4 5 5 5 5 6 7 8 6 5 5 4 5 4 3 3 2 2 1 1 1 0 1 0 0 1 2 1
4 4 4 5 6 6 8 9 9 7 6 6 7 7 6 6 6 6 5 4 4 4 5 5 5 5 4 4 5 4 3 2 0 0 1 1 1 1 0 0 1 2 1
3 3 4 5 6 6 8 9 8 5 5 6 6 6 7 6 7 8 6 5 4 3 2 4 4 3 4 5 5 4 3 2 1 1 1 2 1 1 1 1 1 1 1
4 4 4 5 5 6 7 8 8 5 5 5 4 5 7 7 7 9 7 6 6 4 3 2 2 2 2 4 6 5 4 3 2 2 2 2 1 1 1 1 1 1 1
Wind_Direction
200 202 211 219 216 202 194 189 187 219 245 265 261 239 236 232 230 230 232 233 231 229 229 224 221 219 217 218 218 218 218 219 217 216 217 220 222 221 220 219 219 217 216
200 198 211 214 219 211 204 196 200 219 241 250 262 250 245 244 237 234 233 236 238 233 232 231 226 223 223 224 224 222 222 222 222 221 221 222 224 225 225 223 223 222 222
201 199 207 218 220 208 195 191 211 214 233 241 253 252 246 245 245 239 236 236 238 238 236 233 230 229 228 228 228 227 226 226 226 226 225 224 225 226 227 228 228 227 226
203 198 207 224 218 188 175 186 200 215 236 238 251 259 248 247 248 243 238 236 234 236 236 234 233 233 233 233 233 232 231 229 229 229 229 228 227 228 230 231 231 231 231
207 199 207 217 207 187 197 211 198 199 232 250 254 256 255 252 251 250 242 238 234 234 236 239 239 238 237 239 237 236 234 232 231 231 231 232 232 232 232 233 234 233 233
210 201 207 212 195 192 214 213 214 213 231 251 273 279 275 267 256 249 248 243 238 238 239 241 242 244 242 241 239 238 238 236 234 232 233 233 234 233 232 232 233 234 235
209 201 211 206 197 205 215 206 199 213 237 203 312 318 312 293 274 258 249 244 245 246 243 240 239 240 246 246 243 242 243 243 240 236 235 235 235 235 233 232 232 233 234
211 210 207 209 204 206 213 206 188 183 227 166 161 1 333 334 327 309 264 243 251 249 246 242 236 236 241 242 244 247 249 251 252 247 242 239 238 238 235 234 233 234 236
215 214 210 205 204 202 217 219 198 193 210 210 188 170 176 261 307 322 319 292 280 268 260 249 240 239 240 240 248 257 257 257 258 258 257 249 245 243 240 237 235 235 237
217 214 209 205 206 203 215 227 211 200 193 215 211 214 206 189 226 318 323 324 320 302 288 272 264 251 242 242 248 257 263 265 264 263 263 259 252 248 242 237 235 236 236
220 217 206 202 207 209 214 218 210 205 200 205 202 196 205 202 205 221 282 310 324 313 298 280 275 272 264 249 251 256 266 276 278 272 266 262 261 254 249 243 240 239 238
225 221 206 203 208 211 215 215 212 211 211 209 207 201 190 189 199 203 238 269 290 300 316 317 299 291 275 252 251 268 289 302 300 293 282 276 276 274 260 250 248 247 243
224 223 213 207 210 213 212 206 206 213 210 208 212 216 214 217 196 186 210 246 265 287 313 329 320 322 322 306 285 322 348 341 326 314 308 309 305 298 281 266 262 257 253
222 215 207 211 215 214 214 204 208 217 213 215 218 212 214 221 209 201 200 204 249 274 284 283 327 335 350 350 347 64 53 30 28 27 25 16 3 350 332 301 275 269 263
217 208 209 215 218 215 211 203 213 217 210 214 219 212 213 219 211 215 211 204 209 245 266 255 270 327 339 14 2 41 60 53 54 47 44 42 40 31 18 3 343 308 293
214 206 212 214 216 217 210 205 215 219 211 215 209 204 209 215 208 209 208 205 206 213 242 244 238 285 325 19 14 34 47 47 47 44 47 52 52 48 47 50 43 28 15
212 213 212 213 217 220 213 208 217 214 216 217 206 203 213 204 202 204 196 193 197 198 227 253 243 265 236 222 13 24 59 59 42 41 48 51 51 52 55 58 53 45 40
216 215 213 217 224 224 214 210 217 214 214 217 212 203 211 201 205 207 199 200 203 200 205 234 247 260 240 232 253 255 67 66 43 31 48 57 62 64 63 63 61 58 54
215 213 210 219 227 225 218 217 216 214 215 216 210 207 210 199 208 208 207 210 209 202 200 209 222 228 230 196 194 271 107 23 35 33 64 73 89 84 73 66 67 64 57
213 212 210 217 220 217 219 222 217 217 219 217 213 209 207 205 210 212 211 209 199 191 192 201 220 224 225 201 177 215 267 354 341 15 40 84 100 99 78 64 66 67 63
218 213 209 213 215 216 220 217 216 216 213 215 217 217 214 208 207 205 205 203 195 193 185 196 210 213 217 207 213 206 224 307 317 324 349 41 70 62 49 42 59 65 67
213 209 211 213 216 225 227 216 211 212 209 208 215 219 217 212 208 204 204 199 194 196 197 197 207 215 222 222 211 200 192 197 247 250 215 304 97 276 357 97 137 114 84
215 216 218 217 224 227 219 215 211 206 206 210 211 209 216 216 203 204 201 200 208 210 199 193 200 213 212 209 195 197 204 210 226 221 187 240 261 258 267 220 207 164 122
222 222 225 226 232 235 216 211 206 206 209 212 210 207 207 211 207 197 188 189 206 220 216 211 211 215 211 197 196 200 202 195 202 163 181 209 239 249 272 247 215 183 174
225 224 231 228 230 239 224 211 200 207 215 220 216 210 207 210 205 185 179 186 194 216 198 186 197 204 185 169 165 151 153 165 208 217 195 196 207 232 257 270 246 201 199
227 229 236 234 233 239 229 216 202 207 214 222 223 218 209 205 191 180 185 188 198 207 182 163 163 188 183 168 168 177 180 183 190 208 195 186 175 165 224 238 243 239 238
Height
1548 1548 1549 1550 1550 1551 1552 1553 1554 1555 1556 1557 1558 1558 1559 1559 1560 1560 1561 1561 1562 1562 1562 1562 1563 1564 1565 1566 1567 1568 1569 1569 1570 1571 1572 1573 1574 1574 1575 1576 1577 1578 1578
1548 1548 1549 1550 1550 1551 1552 1553 1554 1555 1556 1556 1557 1557 1558 1558 1559 1559 1559 1560 1560 1561 1561 1561 1561 1562 1563 1564 1565 1566 1567 1568 1568 1569 1570 1571 1571 1572 1573 1574 1574 1575 1576
1548 1549 1549 1550 1550 1551 1552 1553 1553 1554 1555 1555 1556 1556 1557 1557 1557 1558 1558 1558 1559 1559 1559 1560 1560 1560 1561 1562 1563 1564 1564 1565 1566 1567 1567 1568 1569 1570 1570 1571 1572 1573 1574
1548 1548 1549 1549 1550 1551 1551 1552 1553 1553 1554 1554 1555 1555 1555 1555 1556 1556 1556 1556 1557 1557 1557 1558 1558 1559 1559 1560 1560 1561 1562 1562 1563 1564 1564 1565 1566 1567 1568 1568 1569 1570 1571
1547 1548 1548 1549 1550 1550 1551 1551 1552 1552 1552 1553 1553 1553 1553 1554 1554 1554 1554 1554 1554 1555 1555 1556 1556 1557 1557 1557 1558 1558 1559 1560 1560 1561 1561 1562 1563 1564 1564 1565 1566 1567 1568
1546 1547 1548 1548 1549 1549 1550 1550 1551 1551 1551 1552 1551 1551 1552 1551 1551 1551 1552 1552 1552 1552 1553 1553 1554 1554 1554 1555 1555 1556 1556 1556 1557 1557 1558 1559 1559 1560 1561 1561 1562 1563 1564
1545 1546 1547 1547 1548 1549 1549 1550 1550 1550 1550 1550 1550 1550 1550 1549 1549 1549 1549 1549 1550 1550 1550 1551 1551 1551 1551 1552 1553 1553 1553 1553 1554 1554 1555 1555 1556 1556 1557 1557 1558 1559 1560
1544 1544 1545 1546 1547 1547 1548 1548 1549 1549 1549 1549 1549 1548 1548 1548 1547 1547 1547 1547 1548 1548 1548 1548 1548 1548 1548 1549 1549 1550 1550 1550 1550 1551 1551 1551 1551 1552 1552 1553 1554 1554 1555
1542 1542 1543 1544 1545 1546 1546 1547 1547 1547 1548 1548 1548 1548 1547 1546 1546 1546 1545 1546 1546 1546 1546 1546 1545 1545 1545 1546 1546 1546 1546 1546 1546 1547 1547 1547 1547 1548 1548 1548 1549 1550 1551
1540 1541 1541 1542 1543 1544 1544 1545 1546 1546 1546 1546 1546 1546 1547 1546 1546 1545 1545 1544 1544 1544 1543 1543 1543 1543 1543 1543 1543 1543 1543 1543 1543 1543 1543 1543 1543 1543 1543 1544 1544 1545 1545
1538 1539 1539 1540 1541 1541 1542 1543 1543 1544 1544 1544 1544 1544 1544 1544 1544 1544 1543 1543 1542 1541 1541 1540 1540 1540 1540 1540 1540 1540 1539 1539 1539 1539 1539 1539 1539 1539 1539 1539 1540 1540 1540
1535 1536 1537 1538 1538 1539 1540 1540 1541 1541 1542 1542 1542 1542 1542 1542 1542 1542 1541 1540 1540 1539 1539 1538 1538 1538 1537 1537 1537 1537 1536 1536 1536 1536 1535 1535 1535 1535 1535 1535 1535 1535 1536
1532 1533 1534 1535 1536 1536 1537 1538 1538 1538 1539 1539 1539 1539 1539 1540 1540 1539 1539 1538 1537 1537 1536 1536 1536 1536 1535 1535 1534 1534 1533 1533 1532 1532 1532 1531 1531 1531 1531 1531 1531 1531 1531
1529 1530 1532 1532 1533 1534 1535 1535 1535 1535 1536 1536 1536 1536 1537 1537 1537 1537 1537 1537 1535 1535 1534 1534 1534 1533 1533 1533 1532 1532 1531 1530 1530 1529 1529 1528 1528 1527 1527 1527 1527 1527 1527
1526 1527 1529 1530 1530 1531 1531 1532 1532 1532 1532 1533 1533 1534 1534 1534 1534 1534 1534 1534 1535 1533 1532 1531 1532 1532 1531 1531 1530 1530 1529 1528 1528 1527 1526 1526 1525 1524 1524 1523 1523 1523 1523
1523 1524 1525 1526 1527 1527 1527 1528 1528 1529 1529 1529 1530 1530 1531 1531 1531 1531 1531 1531 1531 1531 1530 1529 1529 1529 1529 1528 1528 1528 1527 1527 1526 1525 1524 1523 1522 1522 1521 1521 1520 1520 1520
1520 1521 1522 1523 1523 1523 1524 1524 1525 1525 1526 1526 1527 1527 1527 1528 1528 1528 1528 1527 1527 1527 1527 1527 1526 1526 1526 1526 1525 1525 1525 1525 1524 1523 1522 1521 1520 1520 1519 1519 1518 1517 1517
1516 1517 1518 1519 1519 1520 1520 1520 1521 1522 1522 1523 1523 1524 1524 1524 1524 1525 1524 1524 1524 1524 1524 1524 1523 1523 1523 1523 1523 1523 1523 1522 1522 1521 1520 1519 1518 1518 1517 1517 1516 1515 1514
1512 1513 1514 1515 1515 1516 1516 1517 1518 1518 1518 1519 1519 1520 1520 1520 1521 1521 1521 1521 1521 1521 1521 1521 1520 1520 1520 1520 1520 1520 1520 1519 1519 1519 1518 1517 1516 1516 1515 1515 1514 1513 1512
1507 1508 1509 1510 1511 1512 1512 1513 1513 1514 1514 1515 1515 1516 1516 1516 1517 1517 1517 1517 1517 1517 1517 1517 1517 1516 1517 1517 1517 1517 1517 1517 1517 1516 1516 1515 1515 1514 1514 1513 1512 1512 1511
1503 1504 1504 1505 1507 1508 1508 1509 1509 1509 1510 1510 1511 1512 1512 1513 1513 1513 1513 1513 1514 1513 1513 1513 1513 1513 1513 1513 1513 1514 1514 1514 1513 1514 1513 1513 1513 1512 1512 1511 1511 1510 1509
1499 1499 1500 1501 1502 1503 1504 1504 1505 1505 1505 1506 1506 1506 1507 1508 1509 1509 1509 1509 1510 1510 1509 1509 1509 1510 1510 1510 1510 1510 1511 1511 1511 1512 1511 1511 1511 1510 1510 1509 1509 1508 1508
1494 1494 1495 1496 1496 1497 1498 1498 1499 1500 1500 1500 1501 1501 1502 1503 1503 1504 1504 1505 1505 1506 1506 1506 1506 1506 1507 1507 1508 1508 1508 1508 1508 1508 1509 1508 1509 1508 1508 1507 1507 1506 1506
1489 1488 1489 1490 1491 1491 1492 1493 1494 1494 1494 1495 1495 1496 1497 1497 1498 1498 1499 1500 1501 1501 1502 1501 1502 1502 1503 1504 1504 1505 1505 1505 1505 1505 1506 1506 1506 1506 1506 1505 1505 1505 1504
1484 1484 1485 1486 1486 1486 1487 1488 1489 1489 1489 1489 1490 1490 1491 1492 1493 1493 1494 1494 1495 1496 1497 1497 1498 1499 1499 1500 1500 1501 1501 1502 1501 1502 1503 1503 1503 1503 1503 1503 1503 1503 1502
1479 1480 1480 1481 1481 1481 1482 1483 1484 1484 1483 1484 1484 1485 1485 1486 1487 1488 1489 1490 1490 1491 1492 1493 1494 1495 1495 1496 1497 1497 1498 1498 1498 1499 1499 1500 1500 1500 1500 1501 1501 1500 1500